TimeMDT,TemperatureF,Dew PointF,Humidity,Sea Level PressureIn,VisibilityMPH,Wind Direction,Wind SpeedMPH,Gust SpeedMPH,PrecipitationIn,Events,Conditions,WindDirDegrees,DateUTC
12:53 AM,77.0,66.0,69,29.74,10.0,North,10.4,-,N/A,,Clear,360,2013-07-04 06:53:00
1:53 AM,75.9,66.9,74,29.75,10.0,North,9.2,-,N/A,,Clear,10,2013-07-04 07:53:00
2:53 AM,73.9,66.9,79,29.76,10.0,North,8.1,-,N/A,,Scattered Clouds,10,2013-07-04 08:53:00
3:53 AM,73.9,66.0,76,29.77,10.0,North,11.5,-,N/A,,Scattered Clouds,10,2013-07-04 09:53:00
4:06 AM,73.4,66.2,78,29.85,10.0,NNE,5.8,-,N/A,Thunderstorm,Scattered Clouds,20,2013-07-04 10:06:00
4:53 AM,71.1,68.0,90,29.80,10.0,North,10.4,-,0.02,Thunderstorm,Overcast,350,2013-07-04 10:53:00
5:02 AM,71.6,68.0,88,29.87,9.0,NNE,9.2,-,0.01,Rain,Light Rain,20,2013-07-04 11:02:00
5:45 AM,71.6,66.2,83,29.90,10.0,NW,5.8,-,0.01,,Mostly Cloudy,310,2013-07-04 11:45:00
5:53 AM,70.0,66.9,90,29.81,9.0,NW,5.8,-,0.01,,Mostly Cloudy,310,2013-07-04 11:53:00
6:53 AM,70.0,64.9,84,29.83,10.0,North,8.1,-,N/A,,Scattered Clouds,360,2013-07-04 12:53:00
7:53 AM,72.0,64.0,76,29.83,10.0,NNE,9.2,-,N/A,,Clear,20,2013-07-04 13:53:00
8:53 AM,75.0,64.0,69,29.83,10.0,NNE,9.2,-,N/A,,Clear,30,2013-07-04 14:53:00
9:53 AM,75.9,63.0,64,29.83,10.0,NE,10.4,-,N/A,,Partly Cloudy,50,2013-07-04 15:53:00
10:53 AM,79.0,63.0,58,29.83,10.0,Variable,3.5,-,N/A,,Clear,0,2013-07-04 16:53:00
11:53 AM,82.0,62.1,51,29.81,10.0,Variable,4.6,-,N/A,,Clear,0,2013-07-04 17:53:00
12:53 PM,84.0,60.1,44,29.81,10.0,Variable,3.5,-,N/A,,Partly Cloudy,0,2013-07-04 18:53:00
1:53 PM,86.0,60.1,41,29.79,10.0,Variable,3.5,-,N/A,,Clear,0,2013-07-04 19:53:00
2:53 PM,87.1,57.0,36,29.78,10.0,NE,5.8,-,N/A,,Clear,50,2013-07-04 20:53:00
3:53 PM,87.1,57.0,36,29.77,10.0,ENE,8.1,-,N/A,,Clear,70,2013-07-04 21:53:00
4:53 PM,86.0,55.9,36,29.77,10.0,NE,8.1,-,N/A,,Clear,40,2013-07-04 22:53:00
5:53 PM,82.9,55.9,39,29.74,10.0,ENE,6.9,-,N/A,,Clear,60,2013-07-04 23:53:00
6:53 PM,84.0,57.0,40,29.72,10.0,NE,9.2,-,N/A,,Clear,50,2013-07-05 00:53:00
7:53 PM,82.9,57.9,42,29.73,10.0,ENE,8.1,-,N/A,,Clear,60,2013-07-05 01:53:00
8:53 PM,78.1,59.0,52,29.74,10.0,ENE,6.9,-,N/A,,Clear,70,2013-07-05 02:53:00
9:53 PM,79.0,57.0,47,29.74,10.0,East,6.9,-,N/A,,Clear,90,2013-07-05 03:53:00
10:53 PM,78.1,57.9,50,29.73,10.0,ESE,5.8,-,N/A,,Clear,110,2013-07-05 04:53:00
11:53 PM,75.0,57.9,55,29.72,10.0,Calm,Calm,-,N/A,,Mostly Cloudy,0,2013-07-05 05:53:00